Regional Weather Roundup
Issued by NWS

Home | Current Version | Previous Version | Graphics & Text | Print | Product List | Glossary On
Versions: 1 2 3 4 5 6 7 8 9 10 11 12 13 14 15 16 17 18 19 20 21 22 23 24 25 26 27 28 29 30 31 32 33 34 35 36 37 38 39 40 41 42 43 44 45 46 47 48 49 50
605
ASUS45 KTFX 211110
RWRMT
MONTANA REGIONAL WEATHER ROUNDUP
NATIONAL WEATHER SERVICE GREAT FALLS MT
400 AM MST SAT JAN 21 2017

NOTE: "FAIR" INDICATES FEW OR NO CLOUDS BELOW 12000 FEET WITH NO
SIGNIFICANT WEATHER AND/OR OBSTRUCTIONS TO VISIBILITY.

MTZ001>007-043-211200-
WEST OF THE DIVIDE

CITY           SKY/WX    TMP DP  RH WIND       PRES   REMARKS
KALISPELL      PTCLDY    14  10  84 CALM      29.33S
MISSOULA       FOG       19  18  95 CALM      29.35S VSB 3/4
BUTTE          CLOUDY     4  -1  80 CALM      29.30S
MULLAN PASS    CLOUDY    22  20  92 SE7       29.23S WCI  13
ANACONDA         N/A     16   9  73 SW6       29.31S WCI   7
DEER LODGE       N/A     16  10  79 CALM      29.35R
EUREKA           N/A     19  18  93 CALM      29.39R
HAMILTON         N/A     19  16  86 CALM      29.33
PLAINS           N/A     22  18  85 CALM      29.39R
RONAN            N/A     14  10  84 CALM      29.40R VSB 0
$$

MTZ008-052>055-211200-
SOUTHWEST MONTANA

CITY           SKY/WX    TMP DP  RH WIND       PRES   REMARKS
BOZEMAN        CLOUDY     6   2  83 SE5       29.33S
DILLON         CLOUDY    23  11  60 S9        29.30S WCI  13
W YELLOWSTONE  CLOUDY    14  12  92 CALM      29.32S
ENNIS          CLOUDY    19  14  79 CALM      29.35S
TWIN BRIDGES     N/A     13   5  70 CALM      29.40R
$$

MTZ009-010-012-014-046-048-049-054-211200-
EAST SLOPES AND CENTRAL MONTANA

CITY           SKY/WX    TMP DP  RH WIND       PRES   REMARKS
CUT BANK       CLEAR     15  12  88 NW7       29.32S WCI   5
GREAT FALLS    CLEAR     21  15  78 CALM      29.32F
MALMSTROM AFB  CLEAR     23  18  81 W5        29.33F
HELENA         CLOUDY    10   7  87 E3        29.35S
AUGUSTA          N/A     19  13  77 NW13      29.29F WCI   7
BOWMANS CRNR     N/A     21  15  78 SW8       29.28S WCI  11
CHOTEAU          N/A     21  16  79 SW5       29.33S
CONRAD           N/A      7   4  87 SE2       29.40S
POWER            N/A      9   7  91 CALM      29.31F
RAYNESFORD       N/A     21  14  75 E5        29.32F
ULM              N/A     20  15  79 MISG      29.32F
$$

MTZ011-013-016-021-045-047-050-051-211200-
NORTH CENTRAL MONTANA

CITY           SKY/WX    TMP DP  RH WIND       PRES   REMARKS
HAVRE          CLEAR     18  15  88 CALM      29.37S
LEWISTOWN      CLEAR     19  15  84 SE6       29.32F WCI  11
CHINOOK          N/A     18  16  93 N3        29.37F
DENTON           N/A     19  14  82 S13       29.30F WCI   5
FORT BENTON      N/A     21  19  93 MISG      29.36F
GEYSER           N/A     22  16  76 W5        29.30F
GRASS RANGE      N/A     25  20  81 SW6       29.29F WCI  18
JUDITH GAP       N/A     20  16  84 SW10      29.31F WCI   9
ROY              N/A     26  22  83 MISG      29.31F
STANFORD         N/A     24  15  70 CALM      29.30F
WINIFRED         N/A     28  21  77 W5        29.31F
$$

MTZ017>020-022>027-061-062-211200-
NORTHEAST MONTANA

CITY           SKY/WX    TMP DP  RH WIND       PRES   REMARKS
GLASGOW        CLOUDY    23  21  92 W8        29.34F WCI  14
JORDAN           N/A     16  13  88 CALM      29.34F
SIDNEY         CLOUDY    34  27  75 NW16      29.31F WCI  24
WOLF POINT     PTCLDY    25  21  85 SW7       29.35S WCI  17
PLENTYWOOD       N/A     30  27  86 NW7       29.28F WCI  23
POPLAR           N/A     25  23  93 W10       29.34F WCI  15
SCOBEY           N/A     27  17  65 CALM      29.33F
$$

MTZ028>42-056>058-211200-
SOUTHCENTRAL AND SOUTHEAST MONTANA

CITY           SKY/WX    TMP DP  RH WIND       PRES   REMARKS
BAKER          CLOUDY    28  26  92 W15       29.33F WCI  16
BILLINGS       PTCLDY    20  18  92 SW12      29.34F FOG     WCI   8
LIVINGSTON     CLOUDY    12   6  77 NW8       29.32F WCI   0
MILES CITY     FOG       20  17  88 SW3       29.37S VSB 1/4
BIG TIMBER     CLEAR     18  14  86 W6        29.35S WCI   9
EKALAKA          N/A     29  26  88 SW6       29.37F WCI  23
FORSYTH          N/A     19  19 100 CALM      29.35F VSB 1/4
HARLOWTON        N/A     15  11  82 W15       29.33S WCI   0
LAUREL           N/A     16  11  80 CALM      29.38F
$$

REGIONAL REPORTS...DAKOTAS

CITY           SKY/WX    TMP DP  RH WIND       PRES   REMARKS
WILLISTON      CLOUDY    27  24  89 SW3       29.30S
MINOT          CLOUDY    27  26  96 CALM      29.30R FOG
DICKINSON      CLOUDY    30  26  85 W15       29.27R WCI  19
BEACH          CLOUDY    30  28  93 W17       29.33F WCI  18
CROSBY         CLOUDY    14  14 100 CALM      29.31R
TIOGA          CLOUDY    10  10 100 CALM      29.29F FOG
WATFORD CITY   CLOUDY    28  27  93 SW7       29.30R WCI  21
BISMARCK       CLOUDY    30  28  92 NW3       29.32S
GRAND FORKS    CLOUDY    35  32  88 SE8       29.39F WCI  29
FARGO          CLOUDY    38  35  89 SE14      29.38F FOG     WCI  30
BUFFALO SD       N/A     32  29  88 W17       29.25F WCI  21
RAPID CITY     CLOUDY    33  30  88 N9        29.34S WCI  25
$$

REGIONAL REPORTS...WYOMING/IDAHO/WASHINGTON

CITY           SKY/WX    TMP DP  RH WIND       PRES   REMARKS
GILLETTE       CLEAR     21  18  88 NE3       29.34F
SHERIDAN       CLOUDY    16  11  80 SE7       29.34F WCI   6
BUFFALO WY     MOCLDY    29  18  63 CALM      29.34F
YELLOWSTONE LA   N/A      6   4  91 CALM      29.32F
IDAHO FALLS    CLOUDY    25  23  92 NW9       29.29F WCI  15
SALMON         CLOUDY    12  10  92 CALM      29.37R
BOISE          CLOUDY    34  31  88 SE8       29.32R WCI  27
SPOKANE        CLOUDY    34  28  79 CALM      29.27S
$$

REGIONAL REPORTS...ALBERTA

CITY           SKY/WX    TMP DP  RH WIND       PRES   REMARKS
EDMONTON       MOCLDY    14  10  85 CALM      29.40S VSB 1/8
CALGARY        CLEAR     16  10  79 VRB2      29.34S
LETHBRIDGE     CLEAR     18  16  93 SW9       29.34S WCI   6
MEDICINE HAT   CLEAR     18  16  93 SW2       29.35R
WATERTON GATE    N/A     18  12  79 SW7         N/A  WCI   8
MILK RIVER       N/A     16  14  93 NW8         N/A  WCI   5
ONEFOUR          N/A     25  19  80 W3          N/A
$$

REGIONAL REPORTS...SASKATCHEWAN

CITY           SKY/WX    TMP DP  RH WIND       PRES   REMARKS
SWIFT CURRENT  HVY SNOW  25  25 100 NW12      29.30R VSB 1/4 WCI  14
REGINA         CLOUDY    18  16  93 S3        29.27F FOG
SASKATOON      CLOUDY    28  27  93 N9        29.35S WCI  20
CYPRESS HILLS    N/A     25  12  58 NW5         N/A
ROCKGLEN         N/A     30  23  74 W6          N/A  WCI  24
ASSINIBOIA       N/A     10   9  92 NE2         N/A
$$




USA.gov is the U.S. government's official web portal to all federal, state and local government web resources and services.